Fort Polk, LA

10:14 PM CDT on April 23, 2018 (GMT -0500)
Fort Polk

Weather History for KAQV - July, 2013

Change the Weather History Date:

Wednesday, July 10, 2013

  Actual Average (KPOE) Record (KPOE)
Temperature  
Mean Temperature 85 °F -  
Max Temperature 97 °F 89 °F 100 °F (1998)
Min Temperature 73 °F 71 °F 69 °F (2017)
Cooling Degree Days 20    
Growing Degree Days 35 (Base 50)    
Moisture  
Dew Point 73 °F    
Average Humidity 71    
Maximum Humidity 100    
Minimum Humidity 37    
Precipitation  
Precipitation 0.00 in - - ()
Sea Level Pressure  
Sea Level Pressure 30.04 in    
Wind  
Wind Speed 3 mph (SW)    
Max Wind Speed 9 mph    
Max Gust Speed -    
Visibility 10 miles    
Events      
Averages and records for this station are not official NWS values.
T = Trace of Precipitation, MM = Missing Value Source: NWS Daily Summary

Daily Weather History Graph

Daily Weather History Graph

Search for Another Location

Airport or City:

Astronomy

Jul. 10, 2013 Rise Set
Actual Time 6:16 AM CDT 8:20 PM CDT
Civil Twilight 5:48 AM CDT 8:48 PM CDT
Nautical Twilight 5:15 AM CDT 9:21 PM CDT
Astronomical Twilight 4:39 AM CDT 9:57 PM CDT
Moon 8:26 AM CDT (7/10) 9:44 PM CDT (7/10)
Length of Visible Light 14h 59m
Length of Day
14h 03m
Waxing Crescent, 5% of the Moon is Illuminated
Jul 10
Waxing Crescent
Jul 15
First Quarter
Jul 22
Full
Jul 29
Last Quarter
Aug 6
New

Hourly Weather History & Observations

Time (CDT) Temp. Heat Index Dew Point Humidity Pressure Visibility Wind Dir Wind Speed Gust Speed Precip Events Conditions
12:56 AM 78.1 °F - 73.9 °F 87% 30.06 in 10.0 mi Calm Calm - N/A   Clear
1:56 AM 77.0 °F - 73.9 °F 90% 30.06 in 10.0 mi Variable 3.5 mph - N/A   Clear
2:56 AM 75.9 °F - 73.9 °F 94% 30.06 in 10.0 mi SSW 4.6 mph - N/A   Clear
3:56 AM 75.9 °F - 73.9 °F 94% 30.08 in 10.0 mi Calm Calm - N/A   Scattered Clouds
4:56 AM 73.9 °F - 73.0 °F 97% 30.07 in 10.0 mi Calm Calm - N/A   Clear
5:56 AM 73.9 °F - 73.0 °F 97% 30.07 in 9.0 mi Calm Calm - N/A   Clear
6:33 AM 73.4 °F - 73.4 °F 100% 30.08 in 4.0 mi Calm Calm - N/A   Partly Cloudy
6:56 AM 75.0 °F - 73.9 °F 96% 30.07 in 8.0 mi Calm Calm - N/A   Partly Cloudy
7:56 AM 80.1 °F 85.1 °F 75.0 °F 85% 30.08 in 10.0 mi Variable 3.5 mph - N/A   Clear
8:05 AM 80.6 °F 86.2 °F 75.2 °F 84% 30.10 in 10.0 mi Variable 4.6 mph - N/A   Partly Cloudy
8:25 AM 80.6 °F 86.2 °F 75.2 °F 84% 30.10 in 10.0 mi West 8.1 mph - N/A   Mostly Cloudy
8:41 AM 80.6 °F 86.2 °F 75.2 °F 84% 30.10 in 10.0 mi Variable 6.9 mph - N/A   Mostly Cloudy
8:56 AM 82.0 °F 88.6 °F 75.0 °F 79% 30.09 in 10.0 mi WSW 9.2 mph - N/A   Mostly Cloudy
9:21 AM 84.2 °F 92.3 °F 75.2 °F 74% 30.09 in 10.0 mi Variable 6.9 mph - N/A   Mostly Cloudy
9:30 AM 84.2 °F 90.9 °F 73.4 °F 70% 30.09 in 8.0 mi Variable 6.9 mph - N/A   Scattered Clouds
9:56 AM 84.0 °F 91.2 °F 73.9 °F 72% 30.09 in 9.0 mi Variable 3.5 mph - N/A   Mostly Cloudy
10:38 AM 87.8 °F 95.6 °F 73.4 °F 62% 30.09 in 10.0 mi SSW 4.6 mph - N/A   Scattered Clouds
10:51 AM 87.8 °F 95.6 °F 73.4 °F 62% 30.09 in 10.0 mi Calm Calm - N/A   Mostly Cloudy
10:56 AM 86.0 °F 93.0 °F 73.0 °F 65% 30.08 in 10.0 mi Variable 3.5 mph - N/A   Mostly Cloudy
11:03 AM 87.8 °F 95.6 °F 73.4 °F 62% 30.09 in 10.0 mi Variable 6.9 mph - N/A   Scattered Clouds
11:56 AM 89.1 °F 96.0 °F 72.0 °F 57% 30.07 in 10.0 mi Calm Calm - N/A   Scattered Clouds
12:56 PM 91.9 °F 98.4 °F 71.1 °F 50% 30.05 in 10.0 mi Calm Calm - N/A   Scattered Clouds
1:56 PM 93.0 °F 99.0 °F 70.0 °F 47% 30.04 in 7.0 mi Calm Calm - N/A   Partly Cloudy
2:56 PM 95.0 °F 99.5 °F 68.0 °F 41% 30.00 in 10.0 mi Variable 4.6 mph - N/A   Clear
3:56 PM 97.0 °F 101.0 °F 66.9 °F 37% 29.98 in 10.0 mi Variable 4.6 mph - N/A   Partly Cloudy
4:56 PM 96.1 °F 99.9 °F 66.9 °F 38% 29.95 in 10.0 mi Variable 4.6 mph - N/A   Clear
5:56 PM 95.0 °F 99.5 °F 68.0 °F 41% 29.94 in 10.0 mi Variable 4.6 mph - N/A   Clear
6:56 PM 93.0 °F 97.9 °F 69.1 °F 45% 29.94 in 10.0 mi Variable 3.5 mph - N/A   Clear
7:56 PM 90.0 °F 96.4 °F 71.1 °F 54% 29.95 in 10.0 mi Calm Calm - N/A   Clear
8:56 PM 84.0 °F 90.2 °F 73.0 °F 69% 29.95 in 10.0 mi SSW 4.6 mph - N/A   Clear
9:56 PM 84.0 °F 90.2 °F 73.0 °F 69% 29.97 in 10.0 mi Calm Calm - N/A   Clear
10:56 PM 82.0 °F 87.4 °F 73.0 °F 74% 29.97 in 10.0 mi SSW 4.6 mph - N/A   Clear
11:56 PM 81.0 °F 85.8 °F 73.0 °F 77% 29.97 in 10.0 mi Variable 3.5 mph - N/A   Clear